date,time,SUV Intensity [MED/Hr],UV Index,Daily total [MED],Since Last [MED]
06/10/2023,00:02:03,-0.000,0.0,0.0,0.0
06/10/2023,00:03:03,0.000,0.0,0.0,0.0
06/10/2023,00:04:03,0.000,0.0,0.0,0.0
06/10/2023,00:05:03,-0.000,0.0,0.0,0.0
06/10/2023,00:06:03,0.000,0.0,0.0,0.0
06/10/2023,00:07:03,0.000,0.0,0.0,0.0
06/10/2023,00:08:03,-0.000,0.0,0.0,0.0
06/10/2023,00:09:04,-0.000,0.0,0.0,0.0
06/10/2023,00:10:03,0.000,0.0,0.0,0.0
06/10/2023,00:11:03,-0.000,0.0,0.0,0.0
06/10/2023,00:12:03,0.000,0.0,0.0,0.0
06/10/2023,00:13:03,-0.000,0.0,0.0,0.0
06/10/2023,00:14:03,-0.000,0.0,0.0,0.0
06/10/2023,00:15:03,0.000,0.0,0.0,0.0
06/10/2023,00:16:04,-0.000,0.0,0.0,0.0
06/10/2023,00:17:03,-0.000,0.0,0.0,0.0
06/10/2023,00:18:03,-0.000,0.0,0.0,0.0
06/10/2023,00:19:03,-0.000,0.0,0.0,0.0
06/10/2023,00:20:03,-0.000,0.0,0.0,0.0
06/10/2023,00:21:03,-0.000,0.0,0.0,0.0
06/10/2023,00:22:03,-0.000,0.0,0.0,0.0
06/10/2023,00:23:03,-0.000,0.0,0.0,0.0
06/10/2023,00:24:03,0.001,0.0,0.0,0.0
06/10/2023,00:25:03,-0.000,0.0,0.0,0.0
06/10/2023,00:26:03,-0.000,0.0,0.0,0.0
06/10/2023,00:27:03,-0.000,0.0,0.0,0.0
06/10/2023,00:28:03,-0.000,0.0,0.0,0.0
06/10/2023,00:29:03,-0.000,0.0,0.0,0.0
06/10/2023,00:30:03,-0.000,0.0,0.0,0.0
06/10/2023,00:31:03,-0.000,0.0,0.0,0.0
06/10/2023,00:32:03,-0.000,0.0,0.0,0.0
06/10/2023,00:33:03,-0.000,0.0,0.0,0.0
06/10/2023,00:34:03,-0.000,0.0,0.0,0.0
06/10/2023,00:35:03,-0.000,0.0,0.0,0.0
06/10/2023,00:36:03,-0.000,0.0,0.0,0.0
06/10/2023,00:37:03,-0.000,0.0,0.0,0.0
06/10/2023,00:38:03,-0.000,0.0,0.0,0.0
06/10/2023,00:39:03,-0.000,0.0,0.0,0.0
06/10/2023,00:40:03,-0.000,0.0,0.0,0.0
06/10/2023,00:41:06,-0.000,0.0,0.0,0.0
06/10/2023,00:42:04,-0.000,0.0,0.0,0.0
06/10/2023,00:43:05,-0.000,0.0,0.0,0.0
06/10/2023,00:44:03,-0.000,0.0,0.0,0.0
06/10/2023,00:45:03,-0.000,0.0,0.0,0.0
06/10/2023,00:46:03,-0.000,0.0,0.0,0.0
06/10/2023,00:47:03,-0.000,0.0,0.0,0.0
06/10/2023,00:48:03,-0.000,0.0,0.0,0.0
06/10/2023,00:49:03,-0.000,0.0,0.0,0.0
06/10/2023,00:50:03,-0.000,0.0,0.0,0.0
06/10/2023,00:51:03,-0.000,0.0,0.0,0.0
06/10/2023,00:52:03,-0.000,0.0,0.0,0.0
06/10/2023,00:53:03,-0.000,0.0,0.0,0.0
06/10/2023,00:54:03,-0.000,0.0,0.0,0.0
06/10/2023,00:55:03,-0.000,0.0,0.0,0.0
06/10/2023,00:56:03,-0.000,0.0,0.0,0.0
06/10/2023,00:57:03,-0.000,0.0,0.0,0.0
06/10/2023,00:58:04,-0.000,0.0,0.0,0.0
06/10/2023,00:59:03,-0.000,0.0,0.0,0.0
06/10/2023,01:00:04,-0.000,0.0,0.0,0.0
06/10/2023,01:01:03,-0.000,0.0,0.0,0.0
06/10/2023,01:02:03,-0.000,0.0,0.0,0.0
06/10/2023,01:03:03,-0.000,0.0,0.0,0.0
06/10/2023,01:04:03,-0.000,0.0,0.0,0.0
06/10/2023,01:05:03,-0.000,0.0,0.0,0.0
06/10/2023,01:06:03,-0.000,0.0,0.0,0.0
06/10/2023,01:07:03,-0.000,0.0,0.0,0.0
06/10/2023,01:08:03,-0.000,0.0,0.0,0.0
06/10/2023,01:09:03,-0.000,0.0,0.0,0.0
06/10/2023,01:10:03,-0.000,0.0,0.0,0.0
06/10/2023,01:11:03,-0.000,0.0,0.0,0.0
06/10/2023,01:12:04,-0.000,0.0,0.0,0.0
06/10/2023,01:13:03,-0.000,0.0,0.0,0.0
06/10/2023,01:14:03,-0.000,0.0,0.0,0.0
06/10/2023,01:15:03,-0.000,0.0,0.0,0.0
06/10/2023,01:16:03,0.001,0.0,0.0,0.0
06/10/2023,01:17:03,-0.000,0.0,0.0,0.0
06/10/2023,01:18:03,-0.000,0.0,0.0,0.0
06/10/2023,01:19:03,-0.000,0.0,0.0,0.0
06/10/2023,01:20:03,-0.000,0.0,0.0,0.0
06/10/2023,01:21:03,-0.000,0.0,0.0,0.0
06/10/2023,01:22:03,-0.000,0.0,0.0,0.0
06/10/2023,01:23:03,-0.000,0.0,0.0,0.0
06/10/2023,01:24:03,-0.000,0.0,0.0,0.0
06/10/2023,01:25:03,-0.000,0.0,0.0,0.0
06/10/2023,01:26:03,-0.000,0.0,0.0,0.0
06/10/2023,01:27:03,-0.000,0.0,0.0,0.0
06/10/2023,01:28:03,-0.000,0.0,0.0,0.0
06/10/2023,01:29:03,-0.000,0.0,0.0,0.0
06/10/2023,01:30:03,-0.000,0.0,0.0,0.0
06/10/2023,01:31:04,-0.000,0.0,0.0,0.0
06/10/2023,01:32:03,-0.000,0.0,0.0,0.0
06/10/2023,01:33:03,0.000,0.0,0.0,0.0
06/10/2023,01:34:03,0.000,0.0,0.0,0.0
06/10/2023,01:35:03,0.000,0.0,0.0,0.0
06/10/2023,01:36:03,-0.000,0.0,0.0,0.0
06/10/2023,01:37:03,0.000,0.0,0.0,0.0
06/10/2023,01:38:03,0.000,0.0,0.0,0.0
06/10/2023,01:39:03,0.000,0.0,0.0,0.0
06/10/2023,01:40:03,0.000,0.0,0.0,0.0
06/10/2023,01:41:03,0.000,0.0,0.0,0.0
06/10/2023,01:42:03,0.000,0.0,0.0,0.0
06/10/2023,01:43:03,-0.000,0.0,0.0,0.0
06/10/2023,01:44:03,0.000,0.0,0.0,0.0
06/10/2023,01:45:03,0.000,0.0,0.0,0.0
06/10/2023,01:46:04,0.000,0.0,0.0,0.0
06/10/2023,01:47:03,0.000,0.0,0.0,0.0
06/10/2023,01:48:03,0.001,0.0,0.0,0.0
06/10/2023,01:49:03,0.000,0.0,0.0,0.0
06/10/2023,01:50:03,0.000,0.0,0.0,0.0
06/10/2023,01:51:03,0.000,0.0,0.0,0.0
06/10/2023,01:52:03,0.000,0.0,0.0,0.0
06/10/2023,01:53:03,-0.000,0.0,0.0,0.0
06/10/2023,01:54:03,0.000,0.0,0.0,0.0
06/10/2023,01:55:03,0.000,0.0,0.0,0.0
06/10/2023,01:56:03,0.000,0.0,0.0,0.0
06/10/2023,01:57:04,0.000,0.0,0.0,0.0
06/10/2023,01:58:03,-0.000,0.0,0.0,0.0
06/10/2023,01:59:03,-0.000,0.0,0.0,0.0
06/10/2023,02:00:03,-0.000,0.0,0.0,0.0
06/10/2023,02:01:04,0.001,0.0,0.0,0.0
06/10/2023,02:02:03,0.000,0.0,0.0,0.0
06/10/2023,02:03:03,0.000,0.0,0.0,0.0
06/10/2023,02:04:03,0.000,0.0,0.0,0.0
06/10/2023,02:05:03,0.000,0.0,0.0,0.0
06/10/2023,02:06:04,-0.000,0.0,0.0,0.0
06/10/2023,02:07:04,-0.000,0.0,0.0,0.0
06/10/2023,02:08:03,0.001,0.0,0.0,0.0
06/10/2023,02:09:03,0.000,0.0,0.0,0.0
06/10/2023,02:10:03,0.000,0.0,0.0,0.0
06/10/2023,02:11:03,0.000,0.0,0.0,0.0
06/10/2023,02:12:03,0.000,0.0,0.0,0.0
06/10/2023,02:13:04,-0.000,0.0,0.0,0.0
06/10/2023,02:14:03,0.001,0.0,0.0,0.0
06/10/2023,02:15:03,0.000,0.0,0.0,0.0
06/10/2023,02:16:04,0.000,0.0,0.0,0.0
06/10/2023,02:17:03,0.000,0.0,0.0,0.0
06/10/2023,02:18:03,-0.000,0.0,0.0,0.0
06/10/2023,02:19:03,0.000,0.0,0.0,0.0
06/10/2023,02:20:03,0.000,0.0,0.0,0.0
06/10/2023,02:21:03,-0.000,0.0,0.0,0.0
06/10/2023,02:22:03,0.000,0.0,0.0,0.0
06/10/2023,02:23:03,-0.000,0.0,0.0,0.0
06/10/2023,02:24:03,0.000,0.0,0.0,0.0
06/10/2023,02:25:03,0.000,0.0,0.0,0.0
06/10/2023,02:26:04,-0.000,0.0,0.0,0.0
06/10/2023,02:27:03,0.000,0.0,0.0,0.0
06/10/2023,02:28:03,0.000,0.0,0.0,0.0
06/10/2023,02:29:04,0.000,0.0,0.0,0.0
06/10/2023,02:30:03,-0.000,0.0,0.0,0.0
06/10/2023,02:31:04,-0.000,0.0,0.0,0.0
06/10/2023,02:32:03,0.000,0.0,0.0,0.0
06/10/2023,02:33:03,0.000,0.0,0.0,0.0
06/10/2023,02:34:03,0.000,0.0,0.0,0.0
06/10/2023,02:35:03,0.000,0.0,0.0,0.0
06/10/2023,02:36:03,0.000,0.0,0.0,0.0
06/10/2023,02:37:03,0.000,0.0,0.0,0.0
06/10/2023,02:38:04,0.000,0.0,0.0,0.0
06/10/2023,02:39:03,0.000,0.0,0.0,0.0
06/10/2023,02:40:03,0.000,0.0,0.0,0.0
06/10/2023,02:41:03,0.000,0.0,0.0,0.0
06/10/2023,02:42:04,0.000,0.0,0.0,0.0
06/10/2023,02:43:04,0.000,0.0,0.0,0.0
06/10/2023,02:44:03,0.000,0.0,0.0,0.0
06/10/2023,02:45:03,0.000,0.0,0.0,0.0
06/10/2023,02:46:03,0.001,0.0,0.0,0.0
06/10/2023,02:47:04,0.000,0.0,0.0,0.0
06/10/2023,02:48:03,0.000,0.0,0.0,0.0
06/10/2023,02:49:03,0.000,0.0,0.0,0.0
06/10/2023,02:50:03,0.000,0.0,0.0,0.0
06/10/2023,02:51:03,-0.000,0.0,0.0,0.0
06/10/2023,02:52:03,0.000,0.0,0.0,0.0
06/10/2023,02:53:03,0.000,0.0,0.0,0.0
06/10/2023,02:54:03,0.000,0.0,0.0,0.0
06/10/2023,02:55:03,-0.000,0.0,0.0,0.0
06/10/2023,02:56:32,-0.000,0.0,0.0,0.0
06/10/2023,02:58:04,-0.000,0.0,0.0,0.0
06/10/2023,02:59:03,0.000,0.0,0.0,0.0
06/10/2023,03:00:03,-0.000,0.0,0.0,0.0
06/10/2023,03:01:03,0.000,0.0,0.0,0.0
06/10/2023,03:02:04,0.001,0.0,0.0,0.0
06/10/2023,03:03:04,-0.000,0.0,0.0,0.0
06/10/2023,03:04:03,-0.000,0.0,0.0,0.0
06/10/2023,03:05:03,-0.000,0.0,0.0,0.0
06/10/2023,03:06:03,0.000,0.0,0.0,0.0
06/10/2023,03:07:04,-0.000,0.0,0.0,0.0
06/10/2023,03:08:04,0.002,0.0,0.0,0.0
06/10/2023,03:09:03,0.000,0.0,0.0,0.0
06/10/2023,03:10:04,-0.000,0.0,0.0,0.0
06/10/2023,03:11:04,0.000,0.0,0.0,0.0
06/10/2023,03:12:03,0.000,0.0,0.0,0.0
06/10/2023,03:13:03,0.000,0.0,0.0,0.0
06/10/2023,03:14:03,0.000,0.0,0.0,0.0
06/10/2023,03:15:04,0.000,0.0,0.0,0.0
06/10/2023,03:16:03,-0.000,0.0,0.0,0.0
06/10/2023,03:17:04,-0.000,0.0,0.0,0.0
06/10/2023,03:18:03,0.000,0.0,0.0,0.0
06/10/2023,03:19:03,0.000,0.0,0.0,0.0
06/10/2023,03:20:03,0.001,0.0,0.0,0.0
06/10/2023,03:21:03,0.000,0.0,0.0,0.0
06/10/2023,03:22:03,0.000,0.0,0.0,0.0
06/10/2023,03:23:04,0.000,0.0,0.0,0.0
06/10/2023,03:24:03,0.000,0.0,0.0,0.0
06/10/2023,03:25:03,0.000,0.0,0.0,0.0
06/10/2023,03:26:03,0.000,0.0,0.0,0.0
06/10/2023,03:27:03,-0.000,0.0,0.0,0.0
06/10/2023,03:28:04,0.001,0.0,0.0,0.0
06/10/2023,03:29:03,0.000,0.0,0.0,0.0
06/10/2023,03:30:03,0.000,0.0,0.0,0.0
06/10/2023,03:31:03,0.000,0.0,0.0,0.0
06/10/2023,03:32:04,-0.000,0.0,0.0,0.0
06/10/2023,03:33:03,0.001,0.0,0.0,0.0
06/10/2023,03:34:03,0.000,0.0,0.0,0.0
06/10/2023,03:35:06,0.000,0.0,0.0,0.0
06/10/2023,03:36:03,-0.000,0.0,0.0,0.0
06/10/2023,03:37:04,0.000,0.0,0.0,0.0
06/10/2023,03:38:03,0.000,0.0,0.0,0.0
06/10/2023,03:39:03,-0.000,0.0,0.0,0.0
06/10/2023,03:40:03,0.000,0.0,0.0,0.0
06/10/2023,03:41:04,-0.000,0.0,0.0,0.0
06/10/2023,03:42:05,-0.000,0.0,0.0,0.0
06/10/2023,03:43:04,0.000,0.0,0.0,0.0
06/10/2023,03:44:03,-0.000,0.0,0.0,0.0
06/10/2023,03:45:03,0.000,0.0,0.0,0.0
06/10/2023,03:46:03,0.001,0.0,0.0,0.0
06/10/2023,03:47:04,-0.000,0.0,0.0,0.0
06/10/2023,03:48:03,0.000,0.0,0.0,0.0
06/10/2023,03:49:03,0.000,0.0,0.0,0.0
06/10/2023,03:50:04,-0.000,0.0,0.0,0.0
06/10/2023,03:51:03,0.000,0.0,0.0,0.0
06/10/2023,03:52:03,0.000,0.0,0.0,0.0
06/10/2023,03:53:03,0.000,0.0,0.0,0.0
06/10/2023,03:54:03,-0.000,0.0,0.0,0.0
06/10/2023,03:55:03,-0.000,0.0,0.0,0.0
06/10/2023,03:56:04,-0.000,0.0,0.0,0.0
06/10/2023,03:57:03,-0.000,0.0,0.0,0.0
06/10/2023,03:58:04,0.000,0.0,0.0,0.0
06/10/2023,03:59:04,0.000,0.0,0.0,0.0
06/10/2023,04:00:03,0.000,0.0,0.0,0.0
06/10/2023,04:01:03,0.000,0.0,0.0,0.0
06/10/2023,04:02:04,-0.000,0.0,0.0,0.0
06/10/2023,04:03:04,0.000,0.0,0.0,0.0
06/10/2023,04:04:03,0.000,0.0,0.0,0.0
06/10/2023,04:05:03,0.000,0.0,0.0,0.0
06/10/2023,04:06:03,-0.000,0.0,0.0,0.0
06/10/2023,04:07:03,0.000,0.0,0.0,0.0
06/10/2023,04:08:04,0.001,0.0,0.0,0.0
06/10/2023,04:09:04,0.000,0.0,0.0,0.0
06/10/2023,04:10:03,0.001,0.0,0.0,0.0
06/10/2023,04:11:03,0.000,0.0,0.0,0.0
06/10/2023,04:12:04,0.000,0.0,0.0,0.0
06/10/2023,04:13:03,0.000,0.0,0.0,0.0
06/10/2023,04:14:04,0.001,0.0,0.0,0.0
06/10/2023,04:15:04,0.000,0.0,0.0,0.0
06/10/2023,04:16:09,0.000,0.0,0.0,0.0
06/10/2023,04:17:04,0.000,0.0,0.0,0.0
06/10/2023,04:18:04,0.000,0.0,0.0,0.0
06/10/2023,04:19:04,0.000,0.0,0.0,0.0
06/10/2023,04:20:03,0.001,0.0,0.0,0.0
06/10/2023,04:21:03,-0.000,0.0,0.0,0.0
06/10/2023,04:22:03,-0.000,0.0,0.0,0.0
06/10/2023,04:23:03,0.000,0.0,0.0,0.0
06/10/2023,04:24:03,0.000,0.0,0.0,0.0
06/10/2023,04:25:03,0.000,0.0,0.0,0.0
06/10/2023,04:26:04,0.000,0.0,0.0,0.0
06/10/2023,04:27:04,-0.000,0.0,0.0,0.0
06/10/2023,04:28:04,0.000,0.0,0.0,0.0
06/10/2023,04:29:03,0.000,0.0,0.0,0.0
06/10/2023,04:30:03,0.000,0.0,0.0,0.0
06/10/2023,04:31:04,-0.000,0.0,0.0,0.0
06/10/2023,04:32:04,0.000,0.0,0.0,0.0
06/10/2023,04:33:04,0.000,0.0,0.0,0.0
06/10/2023,04:34:03,0.000,0.0,0.0,0.0
06/10/2023,04:35:04,0.000,0.0,0.0,0.0
06/10/2023,04:36:04,0.000,0.0,0.0,0.0
06/10/2023,04:37:04,0.000,0.0,0.0,0.0
06/10/2023,04:38:03,0.000,0.0,0.0,0.0
06/10/2023,04:39:04,0.000,0.0,0.0,0.0
06/10/2023,04:40:03,0.001,0.0,0.0,0.0
06/10/2023,04:41:04,0.000,0.0,0.0,0.0
06/10/2023,04:42:03,0.000,0.0,0.0,0.0
06/10/2023,04:43:03,0.000,0.0,0.0,0.0
06/10/2023,04:44:04,-0.000,0.0,0.0,0.0
06/10/2023,04:45:04,0.000,0.0,0.0,0.0
06/10/2023,04:46:03,0.000,0.0,0.0,0.0
06/10/2023,04:47:04,0.000,0.0,0.0,0.0
06/10/2023,04:48:03,0.000,0.0,0.0,0.0
06/10/2023,04:49:04,-0.000,0.0,0.0,0.0
06/10/2023,04:50:03,-0.000,0.0,0.0,0.0
06/10/2023,04:51:03,-0.000,0.0,0.0,0.0
06/10/2023,04:52:03,0.000,0.0,0.0,0.0
06/10/2023,04:53:04,0.000,0.0,0.0,0.0
06/10/2023,04:54:03,0.000,0.0,0.0,0.0
06/10/2023,04:55:04,0.000,0.0,0.0,0.0
06/10/2023,04:56:04,0.001,0.0,0.0,0.0
06/10/2023,04:57:03,0.000,0.0,0.0,0.0
06/10/2023,04:58:04,0.000,0.0,0.0,0.0
06/10/2023,04:59:03,0.001,0.0,0.0,0.0
06/10/2023,05:00:03,0.000,0.0,0.0,0.0
06/10/2023,05:01:05,-0.000,0.0,0.0,0.0
06/10/2023,05:02:04,0.000,0.0,0.0,0.0
06/10/2023,05:03:04,0.000,0.0,0.0,0.0
06/10/2023,05:04:04,0.000,0.0,0.0,0.0
06/10/2023,05:05:03,0.000,0.0,0.0,0.0
06/10/2023,05:06:04,0.000,0.0,0.0,0.0
06/10/2023,05:07:04,-0.000,0.0,0.0,0.0
06/10/2023,05:08:03,0.000,0.0,0.0,0.0
06/10/2023,05:09:04,0.000,0.0,0.0,0.0
06/10/2023,05:10:04,0.000,0.0,0.0,0.0
06/10/2023,05:11:04,-0.000,0.0,0.0,0.0
06/10/2023,05:12:03,0.001,0.0,0.0,0.0
06/10/2023,05:13:04,0.000,0.0,0.0,0.0
06/10/2023,05:14:03,0.000,0.0,0.0,0.0
06/10/2023,05:15:04,0.000,0.0,0.0,0.0
06/10/2023,05:16:04,0.000,0.0,0.0,0.0
06/10/2023,05:17:04,0.000,0.0,0.0,0.0
06/10/2023,05:18:03,-0.000,0.0,0.0,0.0
06/10/2023,05:19:03,0.000,0.0,0.0,0.0
06/10/2023,05:20:03,0.000,0.0,0.0,0.0
06/10/2023,05:21:04,0.000,0.0,0.0,0.0
06/10/2023,05:22:03,0.000,0.0,0.0,0.0
06/10/2023,05:23:04,0.000,0.0,0.0,0.0
06/10/2023,05:24:03,0.000,0.0,0.0,0.0
06/10/2023,05:25:04,0.000,0.0,0.0,0.0
06/10/2023,05:26:03,-0.000,0.0,0.0,0.0
06/10/2023,05:27:04,-0.000,0.0,0.0,0.0
06/10/2023,05:28:04,0.000,0.0,0.0,0.0
06/10/2023,05:29:04,0.000,0.0,0.0,0.0
06/10/2023,05:30:04,0.000,0.0,0.0,0.0
06/10/2023,05:31:03,0.000,0.0,0.0,0.0
06/10/2023,05:32:03,0.000,0.0,0.0,0.0
06/10/2023,05:33:03,0.000,0.0,0.0,0.0
06/10/2023,05:34:04,0.000,0.0,0.0,0.0
06/10/2023,05:35:04,0.000,0.0,0.0,0.0
06/10/2023,05:36:04,-0.000,0.0,0.0,0.0
06/10/2023,05:37:03,0.000,0.0,0.0,0.0
06/10/2023,05:38:04,0.000,0.0,0.0,0.0
06/10/2023,05:39:04,0.001,0.0,0.0,0.0
06/10/2023,05:40:03,-0.000,0.0,0.0,0.0
06/10/2023,05:41:03,0.000,0.0,0.0,0.0
06/10/2023,05:42:04,0.000,0.0,0.0,0.0
06/10/2023,05:43:04,0.000,0.0,0.0,0.0
06/10/2023,05:44:04,0.000,0.0,0.0,0.0
06/10/2023,05:45:03,0.000,0.0,0.0,0.0
06/10/2023,05:46:03,0.000,0.0,0.0,0.0
06/10/2023,05:47:04,0.000,0.0,0.0,0.0
06/10/2023,05:48:04,0.001,0.0,0.0,0.0
06/10/2023,05:49:03,0.000,0.0,0.0,0.0
06/10/2023,05:50:03,0.001,0.0,0.0,0.0
06/10/2023,05:51:03,0.000,0.0,0.0,0.0
06/10/2023,05:52:04,0.001,0.0,0.0,0.0
06/10/2023,05:53:03,0.000,0.0,0.0,0.0
06/10/2023,05:54:03,0.000,0.0,0.0,0.0
06/10/2023,05:55:03,0.000,0.0,0.0,0.0
06/10/2023,05:56:03,0.000,0.0,0.0,0.0
06/10/2023,05:57:04,0.001,0.0,0.0,0.0
06/10/2023,05:58:04,0.001,0.0,0.0,0.0
06/10/2023,05:59:04,0.001,0.0,0.0,0.0
06/10/2023,06:00:03,0.000,0.0,0.0,0.0
06/10/2023,06:01:04,-0.000,0.0,0.0,0.0
06/10/2023,06:02:03,0.001,0.0,0.0,0.0
06/10/2023,06:03:04,0.000,0.0,0.0,0.0
06/10/2023,06:04:04,0.000,0.0,0.0,0.0
06/10/2023,06:05:04,0.002,0.0,0.0,0.0
06/10/2023,06:06:03,0.001,0.0,0.0,0.0
06/10/2023,06:07:03,0.002,0.0,0.0,0.0
06/10/2023,06:08:03,0.001,0.0,0.0,0.0
06/10/2023,06:09:05,0.000,0.0,0.0,0.0
06/10/2023,06:10:03,0.001,0.0,0.0,0.0
06/10/2023,06:11:03,0.001,0.0,0.0,0.0
06/10/2023,06:12:03,0.002,0.0,0.0,0.0
06/10/2023,06:13:04,0.002,0.0,0.0,0.0
06/10/2023,06:14:04,0.002,0.0,0.0,0.0
06/10/2023,06:15:03,0.002,0.0,0.0,0.0
06/10/2023,06:16:04,0.003,0.0,0.0,0.0
06/10/2023,06:17:03,0.003,0.0,0.0,0.0
06/10/2023,06:18:03,0.003,0.0,0.0,0.0
06/10/2023,06:19:04,0.004,0.0,0.0,0.0
06/10/2023,06:20:04,0.003,0.0,0.0,0.0
06/10/2023,06:21:04,0.003,0.0,0.0,0.0
06/10/2023,06:22:04,0.003,0.0,0.0,0.0
06/10/2023,06:23:05,0.004,0.0,0.0,0.0
06/10/2023,06:24:04,0.004,0.0,0.0,0.0
06/10/2023,06:25:03,0.004,0.0,0.0,0.0
06/10/2023,06:26:04,0.005,0.0,0.0,0.0
06/10/2023,06:27:04,0.005,0.0,0.0,0.0
06/10/2023,06:28:03,0.006,0.0,0.0,0.0
06/10/2023,06:29:03,0.006,0.0,0.0,0.0
06/10/2023,06:30:03,0.007,0.0,0.0,0.0
06/10/2023,06:31:04,0.006,0.0,0.0,0.0
06/10/2023,06:32:04,0.007,0.0,0.0,0.0
06/10/2023,06:33:04,0.007,0.0,0.0,0.0
06/10/2023,06:34:03,0.007,0.0,0.0,0.0
06/10/2023,06:35:04,0.008,0.0,0.001,0.001
06/10/2023,06:36:03,0.008,0.0,0.001,0.0
06/10/2023,06:37:04,0.008,0.0,0.001,0.0
06/10/2023,06:38:03,0.009,0.0,0.001,0.0
06/10/2023,06:39:04,0.009,0.0,0.001,0.0
06/10/2023,06:40:04,0.011,0.0,0.001,0.0
06/10/2023,06:41:04,0.010,0.0,0.001,0.0
06/10/2023,06:42:03,0.010,0.0,0.002,0.001
06/10/2023,06:43:04,0.010,0.0,0.002,0.0
06/10/2023,06:44:03,0.011,0.0,0.002,0.0
06/10/2023,06:45:04,0.012,0.0,0.002,0.0
06/10/2023,06:46:03,0.012,0.0,0.002,0.0
06/10/2023,06:47:04,0.013,0.0,0.003,0.001
06/10/2023,06:48:04,0.013,0.0,0.003,0.0
06/10/2023,06:49:04,0.013,0.0,0.003,0.0
06/10/2023,06:50:04,0.014,0.0,0.003,0.0
06/10/2023,06:51:03,0.015,0.0,0.003,0.0
06/10/2023,06:52:04,0.015,0.0,0.004,0.001
06/10/2023,06:53:04,0.016,0.0,0.004,0.0
06/10/2023,06:54:03,0.016,0.0,0.004,0.0
06/10/2023,06:55:03,0.018,0.0,0.005,0.001
06/10/2023,06:56:03,0.018,0.0,0.005,0.0
06/10/2023,06:57:04,0.018,0.0,0.005,0.0
06/10/2023,06:58:04,0.019,0.0,0.005,0.0
06/10/2023,06:59:03,0.020,0.0,0.006,0.001
06/10/2023,07:00:04,0.021,0.0,0.006,0.0
06/10/2023,07:01:03,0.022,0.0,0.006,0.0
06/10/2023,07:02:04,0.022,0.0,0.007,0.001
06/10/2023,07:03:04,0.023,0.0,0.007,0.0
06/10/2023,07:04:04,0.024,0.0,0.008,0.001
06/10/2023,07:05:04,0.025,0.0,0.008,0.0
06/10/2023,07:06:03,0.025,0.0,0.008,0.0
06/10/2023,07:07:03,0.026,0.0,0.009,0.001
06/10/2023,07:08:03,0.027,0.0,0.009,0.0
06/10/2023,07:09:04,0.028,0.0,0.01,0.001
06/10/2023,07:10:04,0.029,0.0,0.01,0.0
06/10/2023,07:11:03,0.030,0.0,0.011,0.001
06/10/2023,07:12:03,0.031,0.0,0.011,0.0
06/10/2023,07:13:04,0.031,0.0,0.012,0.001
06/10/2023,07:14:04,0.033,0.0,0.012,0.0
06/10/2023,07:15:04,0.035,0.0,0.013,0.001
06/10/2023,07:16:03,0.035,0.0,0.013,0.0
06/10/2023,07:17:04,0.036,0.0,0.014,0.001
06/10/2023,07:18:04,0.037,0.0,0.015,0.001
06/10/2023,07:19:04,0.039,0.0,0.015,0.0
06/10/2023,07:20:04,0.040,0.0,0.016,0.001
06/10/2023,07:21:02,0.041,0.0,0.017,0.001
06/10/2023,07:22:26,0.043,0.0,0.018,0.001
06/10/2023,07:23:03,0.044,0.0,0.018,0.0
06/10/2023,07:24:04,0.046,0.0,0.019,0.001
06/10/2023,07:25:04,0.047,0.0,0.02,0.001
06/10/2023,07:26:03,0.049,0.0,0.02,0.0
06/10/2023,07:27:04,0.050,0.0,0.021,0.001
06/10/2023,07:28:03,0.052,0.0,0.022,0.001
06/10/2023,07:29:04,0.054,0.0,0.023,0.001
06/10/2023,07:30:04,0.057,0.0,0.024,0.001
06/10/2023,07:31:03,0.057,0.0,0.025,0.001
06/10/2023,07:32:03,0.059,0.0,0.026,0.001
06/10/2023,07:33:05,0.061,0.0,0.027,0.001
06/10/2023,07:34:03,0.061,0.0,0.028,0.001
06/10/2023,07:35:04,0.063,0.0,0.029,0.001
06/10/2023,07:36:04,0.065,0.0,0.03,0.001
06/10/2023,07:37:04,0.066,0.0,0.031,0.001
06/10/2023,07:38:04,0.067,0.0,0.032,0.001
06/10/2023,07:39:03,0.068,0.0,0.033,0.001
06/10/2023,07:40:03,0.069,0.0,0.034,0.001
06/10/2023,07:41:03,0.071,0.0,0.035,0.001
06/10/2023,07:42:04,0.072,0.0,0.037,0.002
06/10/2023,07:43:04,0.074,0.0,0.038,0.001
06/10/2023,07:44:03,0.076,0.0,0.039,0.001
06/10/2023,07:45:04,0.078,0.0,0.04,0.001
06/10/2023,07:46:03,0.079,0.0,0.042,0.002
06/10/2023,07:47:04,0.081,0.0,0.043,0.001
06/10/2023,07:48:03,0.084,0.0,0.044,0.001
06/10/2023,07:49:03,0.086,0.0,0.046,0.002
06/10/2023,07:50:03,0.088,0.0,0.047,0.001
06/10/2023,07:51:04,0.091,0.0,0.049,0.002
06/10/2023,07:52:03,0.093,0.0,0.05,0.001
06/10/2023,07:53:04,0.096,0.0,0.052,0.002
06/10/2023,07:54:03,0.098,0.0,0.054,0.002
06/10/2023,07:55:03,0.101,0.0,0.055,0.001
06/10/2023,07:56:04,0.104,0.0,0.057,0.002
06/10/2023,07:57:03,0.107,0.0,0.059,0.002
06/10/2023,07:58:03,0.108,0.0,0.06,0.001
06/10/2023,07:59:04,0.111,0.0,0.062,0.002
06/10/2023,08:00:03,0.113,0.0,0.064,0.002
06/10/2023,08:01:04,0.115,0.0,0.066,0.002
06/10/2023,08:02:03,0.117,0.0,0.068,0.002
06/10/2023,08:03:04,0.118,0.0,0.07,0.002
06/10/2023,08:04:03,0.120,0.0,0.072,0.002
06/10/2023,08:05:04,0.121,0.0,0.074,0.002
06/10/2023,08:06:03,0.123,0.0,0.076,0.002
06/10/2023,08:07:04,0.125,0.0,0.078,0.002
06/10/2023,08:08:04,0.126,0.0,0.08,0.002
06/10/2023,08:09:04,0.129,0.0,0.082,0.002
06/10/2023,08:10:03,0.132,0.0,0.084,0.002
06/10/2023,08:11:04,0.134,0.0,0.087,0.003
06/10/2023,08:12:03,0.137,0.0,0.089,0.002
06/10/2023,08:13:04,0.139,0.0,0.091,0.002
06/10/2023,08:14:03,0.141,0.0,0.094,0.003
06/10/2023,08:15:04,0.145,0.0,0.096,0.002
06/10/2023,08:16:04,0.147,0.0,0.098,0.002
06/10/2023,08:17:04,0.149,0.0,0.101,0.003
06/10/2023,08:18:04,0.152,0.0,0.103,0.002
06/10/2023,08:19:04,0.154,0.0,0.106,0.003
06/10/2023,08:20:03,0.157,0.0,0.108,0.002
06/10/2023,08:21:03,0.158,0.0,0.111,0.003
06/10/2023,08:22:04,0.160,0.0,0.114,0.003
06/10/2023,08:23:04,0.163,0.0,0.116,0.002
06/10/2023,08:24:04,0.165,0.0,0.119,0.003
06/10/2023,08:25:03,0.167,0.0,0.122,0.003
06/10/2023,08:26:03,0.170,0.0,0.125,0.003
06/10/2023,08:27:04,0.174,0.0,0.128,0.003
06/10/2023,08:28:04,0.176,0.0,0.131,0.003
06/10/2023,08:29:04,0.179,0.0,0.134,0.003
06/10/2023,08:30:04,0.183,0.0,0.137,0.003
06/10/2023,08:31:03,0.186,0.0,0.14,0.003
06/10/2023,08:32:03,0.189,0.0,0.143,0.003
06/10/2023,08:33:04,0.194,0.0,0.146,0.003
06/10/2023,08:34:04,0.198,0.0,0.149,0.003
06/10/2023,08:35:03,0.201,0.0,0.153,0.004
06/10/2023,08:36:04,0.206,0.0,0.156,0.003
06/10/2023,08:37:04,0.212,0.0,0.159,0.003
06/10/2023,08:38:04,0.216,0.0,0.163,0.004
06/10/2023,08:39:04,0.221,1.0,0.167,0.004
06/10/2023,08:40:03,0.223,1.0,0.17,0.003
06/10/2023,08:41:04,0.228,1.0,0.174,0.004
06/10/2023,08:42:04,0.236,1.0,0.178,0.004
06/10/2023,08:43:05,0.241,1.0,0.182,0.004
06/10/2023,08:44:04,0.234,1.0,0.186,0.004
06/10/2023,08:45:04,0.230,1.0,0.19,0.004
06/10/2023,08:46:04,0.230,1.0,0.194,0.004
06/10/2023,08:47:04,0.234,1.0,0.198,0.004
06/10/2023,08:48:04,0.240,1.0,0.201,0.003
06/10/2023,08:49:03,0.249,1.0,0.206,0.005
06/10/2023,08:50:03,0.255,1.0,0.21,0.004
06/10/2023,08:51:04,0.251,1.0,0.214,0.004
06/10/2023,08:52:04,0.252,1.0,0.218,0.004
06/10/2023,08:53:03,0.256,1.0,0.222,0.004
06/10/2023,08:54:04,0.261,1.0,0.227,0.005
06/10/2023,08:55:04,0.265,1.0,0.231,0.004
06/10/2023,08:56:03,0.273,1.0,0.236,0.005
06/10/2023,08:57:04,0.280,1.0,0.24,0.004
06/10/2023,08:58:03,0.292,1.0,0.245,0.005
06/10/2023,08:59:04,0.293,1.0,0.25,0.005
06/10/2023,09:00:04,0.296,1.0,0.255,0.005
06/10/2023,09:01:04,0.299,1.0,0.26,0.005
06/10/2023,09:02:04,0.308,1.0,0.265,0.005
06/10/2023,09:03:03,0.326,1.0,0.27,0.005
06/10/2023,09:04:03,0.352,1.0,0.276,0.006
06/10/2023,09:05:03,0.360,1.0,0.282,0.006
06/10/2023,09:06:04,0.368,1.0,0.288,0.006
06/10/2023,09:07:04,0.373,1.0,0.294,0.006
06/10/2023,09:08:04,0.366,1.0,0.3,0.006
06/10/2023,09:09:03,0.376,1.0,0.306,0.006
06/10/2023,09:10:04,0.380,1.0,0.312,0.006
06/10/2023,09:11:04,0.399,1.0,0.319,0.007
06/10/2023,09:12:04,0.395,1.0,0.326,0.007
06/10/2023,09:13:04,0.417,1.0,0.332,0.006
06/10/2023,09:14:04,0.421,1.0,0.339,0.007
06/10/2023,09:15:03,0.414,1.0,0.346,0.007
06/10/2023,09:16:04,0.403,1.0,0.353,0.007
06/10/2023,09:17:04,0.430,1.0,0.36,0.007
06/10/2023,09:18:04,0.407,1.0,0.367,0.007
06/10/2023,09:19:04,0.419,1.0,0.374,0.007
06/10/2023,09:20:04,0.436,1.0,0.381,0.007
06/10/2023,09:21:03,0.435,1.0,0.388,0.007
06/10/2023,09:22:26,0.416,1.0,0.398,0.01
06/10/2023,09:23:03,0.441,1.0,0.402,0.004
06/10/2023,09:24:04,0.414,1.0,0.41,0.008
06/10/2023,09:25:04,0.416,1.0,0.416,0.006
06/10/2023,09:26:03,0.455,1.0,0.424,0.008
06/10/2023,09:27:03,0.475,1.0,0.432,0.008
06/10/2023,09:28:04,0.477,1.0,0.439,0.007
06/10/2023,09:29:04,0.484,1.0,0.448,0.009
06/10/2023,09:30:04,0.494,1.0,0.456,0.008
06/10/2023,09:31:04,0.500,1.0,0.464,0.008
06/10/2023,09:32:03,0.504,1.0,0.472,0.008
06/10/2023,09:33:04,0.510,1.0,0.481,0.009
06/10/2023,09:34:04,0.517,1.0,0.489,0.008
06/10/2023,09:35:04,0.523,1.0,0.498,0.009
06/10/2023,09:36:04,0.522,1.0,0.507,0.009
06/10/2023,09:37:04,0.522,1.0,0.515,0.008
06/10/2023,09:38:03,0.514,1.0,0.524,0.009
06/10/2023,09:39:04,0.511,1.0,0.533,0.009
06/10/2023,09:40:04,0.540,1.0,0.542,0.009
06/10/2023,09:41:04,0.537,1.0,0.551,0.009
06/10/2023,09:42:04,0.539,1.0,0.56,0.009
06/10/2023,09:43:04,0.554,1.0,0.569,0.009
06/10/2023,09:44:03,0.566,1.0,0.578,0.009
06/10/2023,09:45:04,0.573,1.0,0.588,0.01
06/10/2023,09:46:04,0.586,1.0,0.597,0.009
06/10/2023,09:47:04,0.587,1.0,0.607,0.01
06/10/2023,09:48:04,0.587,1.0,0.617,0.01
06/10/2023,09:49:04,0.596,1.0,0.626,0.009
06/10/2023,09:50:04,0.601,1.0,0.636,0.01
06/10/2023,09:51:04,0.603,1.0,0.647,0.011
06/10/2023,09:52:04,0.604,1.0,0.657,0.01
06/10/2023,09:53:04,0.606,1.0,0.667,0.01
06/10/2023,09:54:04,0.612,1.0,0.677,0.01
06/10/2023,09:55:04,0.613,1.0,0.687,0.01
06/10/2023,09:56:04,0.536,1.0,0.697,0.01
06/10/2023,09:57:04,0.626,1.0,0.707,0.01
06/10/2023,09:58:04,0.587,1.0,0.718,0.011
06/10/2023,09:59:05,0.643,1.0,0.728,0.01
06/10/2023,10:00:04,0.660,2.0,0.739,0.011
06/10/2023,10:01:04,0.511,1.0,0.749,0.01
06/10/2023,10:02:04,0.580,1.0,0.759,0.01
06/10/2023,10:03:03,0.658,2.0,0.769,0.01
06/10/2023,10:04:04,0.538,1.0,0.779,0.01
06/10/2023,10:05:04,0.567,1.0,0.789,0.01
06/10/2023,10:06:04,0.599,1.0,0.798,0.009
06/10/2023,10:07:04,0.496,1.0,0.806,0.008
06/10/2023,10:08:04,0.491,1.0,0.815,0.009